Flag for Australia Weather past 2 weeks in Dubbo, New South Wales, Australia

Now
75 °F

Sunny.


Feels Like: 78 °F
Forecast: 51 / 83 °F
Wind: 14 mph from East

Location: Dubbo Airport

Current Time: Oct 21, 2014 at 1:25:09 PM

Latest Report: Oct 21, 2014 at 1:00 PM


Visibility: N/A

Pressure: 30.33 "Hg

Humidity: 41%

Dew point: 50 °F

Location of DubboLocation

Historic Weather in Dubbo — Graph

°F

Dubbo temperature yesterday

Maximum temperature yesterday: 90 °F (at 2:00 PM)
Minimum temperature yesterday: 50 °F (at 3:30 AM)
Average temperature yesterday: 68 °F

Past Weeks' High & Low Weather Summary

 TemperatureHumidityPressure
High91 °F (Oct 12, 2:30 PM)100% (Oct 14, 11:30 PM)30.39 "Hg (Oct 14, 11:30 PM)
Low37 °F (Oct 16, 6:00 AM)16% (Oct 20, 4:00 PM)29.65 "Hg (Oct 13, 2:01 PM)
Average64 °F52%30.06 "Hg
* Reported Oct 6 12:00 Noon — Oct 21 12:00 Noon, Dubbo, Weather by CustomWeather, © 2014

Note: Actual official high and low records may vary slightly from our data, if they occured in-between our weather recording intervals... More about our weather records

Advertising

Dubbo weather history for previous 24 hours

 ConditionsComfort  
Time TempWeatherWind HumidityBarometerVisibility
12:00 PM
Oct 21
75 °FSunny.16 mph41%30.36 "HgN/A
11:30 AM73 °FSunny.17 mph44%30.36 "HgN/A
11:00 AM72 °FSunny.17 mph47%30.36 "HgN/A
10:30 AM70 °FSunny.20 mph50%30.36 "HgN/A
10:00 AM68 °FSunny.20 mph53%30.39 "HgN/A
9:30 AM66 °FSunny.21 mph56%30.39 "HgN/A
9:00 AM64 °FSunny.20 mph56%30.36 "HgN/A
8:30 AM63 °FSunny.21 mph64%30.36 "HgN/A
8:00 AM61 °FSunny.22 mph68%30.36 "HgN/A
7:30 AM59 °FSunny.21 mph72%30.36 "HgN/A
7:00 AM57 °FSunny.18 mph77%30.33 "HgN/A
6:30 AM57 °FSunny.17 mph77%30.33 "HgN/A
6:00 AM57 °FClear.13 mph77%30.33 "HgN/A
5:30 AM57 °FClear.16 mph77%30.30 "HgN/A
5:00 AM57 °FClear.17 mph77%30.30 "HgN/A
4:30 AM57 °FClear.16 mph77%30.30 "HgN/A
4:00 AM57 °FClear.16 mph77%30.30 "HgN/A
3:00 AM59 °FClear.21 mph72%30.30 "HgN/A
2:30 AM59 °FClear.17 mph77%30.30 "HgN/A
2:00 AM59 °FClear.16 mph77%30.30 "HgN/A
1:30 AM59 °FClear.17 mph77%30.30 "HgN/A
1:00 AM61 °FClear.18 mph72%30.30 "HgN/A
12:30 AM61 °FClear.18 mph72%30.30 "HgN/A
12:00 AM63 °FClear.16 mph68%30.30 "HgN/A
11:30 PM
Oct 20
63 °FClear.21 mph68%30.30 "HgN/A
11:01 PM63 °FClear.20 mph68%30.30 "HgN/A
10:30 PM64 °FClear.22 mph64%30.27 "HgN/A
10:00 PM64 °FClear.16 mph60%30.27 "HgN/A
9:30 PM64 °FClear.14 mph60%30.27 "HgN/A
9:00 PM66 °FClear.20 mph56%30.24 "HgN/A
8:30 PM66 °FClear.18 mph56%30.24 "HgN/A
8:00 PM68 °FClear.16 mph56%30.24 "HgN/A
7:30 PM70 °FClear.21 mph53%30.21 "HgN/A
7:00 PM73 °FSunny.21 mph47%30.18 "HgN/A
6:30 PM77 °FSunny.22 mph42%30.18 "HgN/A
6:00 PM81 °FSunny.21 mph37%30.15 "HgN/A
5:30 PM82 °FSunny.21 mph35%30.15 "HgN/A
5:00 PM86 °FSunny.20 mph31%30.15 "HgN/A
4:30 PM86 °FSunny.21 mph31%30.15 "HgN/A
4:00 PM90 °FSunny.14 mph16%30.15 "HgN/A
2:00 PM90 °FSunny.7 mph20%30.21 "HgN/A
1:30 PM88 °FSunny.8 mph19%30.21 "HgN/A
1:00 PM88 °FSunny.6 mph21%30.24 "HgN/A
Weather by CustomWeather, © 2014

See weather overviewHow to use our weather pages